Location: Star Dogged Moon Observatory
(29.7756°N, 82.0783°W)
Time: 06:50:25
(UTC-05:00)

Amateur Radio Satellites - All Passes

Search period start: 08 December 2016 06:20
Search period end: 09 December 2016 06:20
Location: Star Dogged Moon Observatory, 29.7756°N, 82.0783°W

Satellite Date Start Highest point End Downlink Frequencies (MHz)
Time Altitude Azimuth
BRITE-PL 08 Dec 06:21:37 06:26:37 35° 287° (WNW) 06:31:43 437.365/2234.400
YUBILEINY 08 Dec 06:32:33 06:41:24 77° 84° (E) 06:50:14 435.215
SO-50 08 Dec 06:33:48 06:36:17 15° 252° (WSW) 06:38:45 436.795
RS-15 08 Dec 06:43:20 06:54:37 63° 111° (ESE) 07:06:30 29.354- 29.394
CUTE-I 08 Dec 06:45:06 06:50:26 82° 102° (ESE) 06:55:45 437.470
CINEMA 3 08 Dec 06:48:50 06:51:24 15° 93° (E) 06:53:53 145.822/145.860
AIST 2 08 Dec 06:50:01 06:53:33 29° 111° (ESE) 06:57:07 435.215
Cosmos 2491 08 Dec 06:53:14 07:01:57 70° 92° (E) 07:10:37 435.465 / 435.565
NOAA 15 08 Dec 07:00:28 07:05:41 62° 285° (WNW) 07:10:53 137.62
Cubesat XI-IV 08 Dec 07:11:58 07:17:09 54° 286° (WNW) 07:22:18 437.490
LilacSat-2 08 Dec 07:13:21 07:16:33 27° 287° (WNW) 07:19:46 437.200
NOAA 18 08 Dec 07:13:40 07:19:13 89° 284° (WNW) 07:24:42 137.9125
AIST 1 08 Dec 07:18:40 07:23:04 79° 266° (W) 07:27:26
DOVE 4 08 Dec 07:22:40 07:27:38 45° 286° (WNW) 07:32:24 437.250
GOMX 1 08 Dec 07:24:55 07:28:45 20° 291° (WNW) 07:32:33 467.674
HO-68 08 Dec 07:26:41 07:33:02 33° 99° (E) 07:39:20 435.675
STRAND 1 08 Dec 07:36:41 07:41:36 48° 260° (W) 07:46:34 437.568
CUTE 1.7 + AOD 2 08 Dec 07:51:03 07:55:07 46° 99° (E) 07:59:12 437.475
AAUSAT CUBESAT 2 08 Dec 08:04:00 08:07:04 20° 96° (E) 08:10:08 437.432
PRISM 08 Dec 08:08:17 08:11:00 18° 70° (ENE) 08:13:43 437.425
Cosmos 2504 08 Dec 08:08:30 08:16:45 51° 270° (W) 08:24:27 435.465 / 435.565
CANX-2 08 Dec 08:09:27 08:13:40 82° 282° (WNW) 08:17:53 2200.000
JUGNU 08 Dec 08:14:37 08:16:25 11° 160° (SSE) 08:18:13 437.505
CINEMA 3 08 Dec 08:24:20 08:28:39 37° 287° (WNW) 08:32:46 145.822/145.860
CUBEBUG 2 08 Dec 08:26:07 08:30:15 44° 99° (E) 08:34:14 437.445
AIST 2 08 Dec 08:29:11 08:32:00 18° 305° (NW) 08:34:50 435.215
SEEDS 08 Dec 08:29:53 08:34:05 83° 281° (W) 08:38:17 437.485
YUBILEINY 08 Dec 08:32:08 08:37:07 17° 279° (W) 08:42:08 435.215
COMPASS 1 08 Dec 08:35:44 08:39:53 73° 101° (E) 08:44:03 437.405
Oscar 11 08 Dec 08:37:44 08:40:44 18° 96° (E) 08:43:43 145.826/435.025
CUSAT 1 08 Dec 08:41:16 08:43:28 16° 96° (E) 08:45:26 437.405
Cosmos 2491 08 Dec 08:53:30 08:59:21 19° 288° (WNW) 09:05:14 435.465 / 435.565
RS-15 08 Dec 08:57:23 09:07:42 34° 311° (NW) 09:18:31 29.354- 29.394
UWE-3 08 Dec 09:03:22 09:07:37 83° 102° (ESE) 09:11:46 435.000/436.395/437.385
HO-68 08 Dec 09:14:09 09:20:37 37° 292° (WNW) 09:27:04 435.675
UNISAT 6 08 Dec 09:23:10 09:27:15 30° 73° (ENE) 09:31:19 437.425
CUTE 1.7 + AOD 2 08 Dec 09:29:46 09:30:29 10° 292° (WNW) 09:31:12 437.475
ZACube-1 08 Dec 09:39:01 09:43:08 60° 284° (WNW) 09:47:12 437.345
AAUSAT CUBESAT 2 08 Dec 09:39:08 09:42:24 23° 288° (WNW) 09:45:40 437.432
PRISM 08 Dec 09:42:42 09:46:03 25° 262° (W) 09:49:26 437.425
JAS-2 08 Dec 09:44:19 09:46:53 13° 67° (ENE) 09:49:20 435.910
FUNcube-1 08 Dec 09:45:19 09:49:23 54° 285° (WNW) 09:53:24 145.935
DANDE 08 Dec 09:48:28 09:53:11 40° 97° (E) 09:56:48 436.750
TIGRISAT 08 Dec 09:51:46 09:56:23 62° 76° (ENE) 10:01:00 435.000
ANTELSAT 08 Dec 09:53:51 09:58:31 70° 77° (ENE) 10:03:09 437.575/2403.000
JUGNU 08 Dec 10:00:14 10:04:53 23° 168° (SSE) 10:09:32 437.505
CUBEBUG 2 08 Dec 10:05:15 10:06:21 11° 293° (WNW) 10:07:27 437.445
Oscar 11 08 Dec 10:13:11 10:16:47 26° 287° (WNW) 10:20:23 145.826/435.025
DELFI C3 08 Dec 10:15:31 10:19:29 74° 283° (WNW) 10:23:28 145.870
AO-85 08 Dec 10:35:44 10:39:03 26° 58° (ENE) 10:42:19 145.980
PCSat 08 Dec 10:37:29 10:42:44 56° 111° (ESE) 10:48:02 145.827
HUMSAT D 08 Dec 10:44:59 10:49:01 66° 283° (WNW) 10:53:03 437.325/437.525
UNISAT 6 08 Dec 11:00:32 11:03:54 19° 264° (W) 11:07:15 437.425
Cosmos 2499 08 Dec 11:01:16 11:08:04 27° 74° (ENE) 11:14:25 435.465 / 435.565
ESTCUBE 1 08 Dec 11:03:40 11:07:03 21° 96° (E) 11:10:26 437.505/2401.250
NANOSAT C BR1 08 Dec 11:04:27 11:08:23 37° 74° (ENE) 11:12:19 145.865
GONETS M04 08 Dec 11:11:11 11:18:35 30° 76° (ENE) 11:25:56
QB50P2 08 Dec 11:12:31 11:16:42 57° 76° (ENE) 11:20:54 145.880/145.840
POLYITAN 1 08 Dec 11:13:00 11:17:10 53° 75° (ENE) 11:21:22 437.675
CUBEBUG 1 08 Dec 11:19:14 11:22:15 18° 95° (E) 11:25:15 437.445
JAS-2 08 Dec 11:24:46 11:31:29 74° 258° (WSW) 11:37:23 435.910
DUCHIFAT 1 08 Dec 11:25:00 11:29:13 63° 76° (ENE) 11:33:26 145.980
QB50P1 08 Dec 11:25:05 11:29:21 77° 77° (ENE) 11:33:38 145.935-145.965
VELOX 1 08 Dec 11:36:32 11:39:38 18° 96° (E) 11:42:42 145.980
SRMSAT 08 Dec 11:44:25 11:48:23 18° 164° (SSE) 11:52:21 437.500
POPSAT HIP 1 08 Dec 11:46:57 11:51:09 56° 259° (W) 11:55:23 437.405
JUGNU 08 Dec 11:48:12 11:53:27 32° 178° (S) 11:58:40 437.505
SPROUT 08 Dec 11:50:58 11:53:44 17° 95° (E) 11:56:29 437.525
BUGSAT 1 08 Dec 12:11:25 12:15:38 83° 78° (ENE) 12:19:54 437.445
50 SAT 08 Dec 12:15:41 12:19:07 45° 100° (E) 12:22:32 437.505
Oscar 19 08 Dec 12:15:56 12:19:33 20° 68° (ENE) 12:23:09 437.125/150
AO-85 08 Dec 12:16:48 12:19:09 16° 251° (WSW) 12:21:31 145.980
PCSat 08 Dec 12:23:11 12:26:26 16° 306° (NW) 12:29:42 145.827
Gurwin Techsat 1B 08 Dec 12:33:32 12:36:21 15° 66° (ENE) 12:39:09 435.225
AISAT 08 Dec 12:34:56 12:39:25 77° 284° (WNW) 12:43:51 437.250
ESTCUBE 1 08 Dec 12:39:59 12:43:45 26° 288° (WNW) 12:47:30 437.505/2401.250
NANOSAT C BR1 08 Dec 12:42:17 12:44:10 13° 266° (W) 12:46:04 145.865
Cosmos 2499 08 Dec 12:53:29 13:01:23 48° 271° (W) 13:08:42 435.465 / 435.565
CUBEBUG 1 08 Dec 12:54:38 12:58:29 29° 287° (WNW) 13:02:17 437.445
TISAT 1 08 Dec 13:03:38 13:06:22 17° 96° (E) 13:09:03 437.305
GONETS M04 08 Dec 13:07:16 13:15:26 46° 271° (W) 13:23:38
VELOX 1 08 Dec 13:12:11 13:16:02 29° 288° (WNW) 13:19:52 145.980
DX 1 08 Dec 13:16:23 13:20:38 51° 285° (WNW) 13:24:52 434.975-435.025
UKube-1 08 Dec 13:18:14 13:22:33 68° 284° (WNW) 13:26:50 .
SPROUT 08 Dec 13:25:56 13:29:37 28° 287° (WNW) 13:33:16 437.525
BEESAT 3 08 Dec 13:28:55 13:32:14 25° 57° (ENE) 13:35:32 437.485
SRMSAT 08 Dec 13:31:59 13:37:03 29° 174° (S) 13:42:06 437.500
JUGNU 08 Dec 13:37:00 13:42:02 28° 188° (S) 13:47:02 437.505
RS-15 08 Dec 13:44:10 13:47:35 11° 24° (NNE) 13:50:58 29.354- 29.394
Oscar 19 08 Dec 13:53:51 13:58:32 36° 261° (W) 14:03:15 437.125/150
BEESAT 2 08 Dec 14:03:38 14:07:05 27° 58° (ENE) 14:10:32 435.950
Gurwin Techsat 1B 08 Dec 14:10:35 14:15:46 54° 259° (W) 14:20:58 435.225
SWISSCUBE 08 Dec 14:11:42 14:15:20 22° 97° (E) 14:18:57 437.505
BEESAT 08 Dec 14:15:30 14:19:05 21° 97° (E) 14:22:39 436.000
ITAMSAT 1 08 Dec 14:27:43 14:32:38 44° 73° (ENE) 14:37:34 435.822/435.867
AO-7 08 Dec 14:34:56 14:42:36 44° 66° (ENE) 14:50:18 29.400- 29.500
TISAT 1 08 Dec 14:38:22 14:41:56 27° 288° (WNW) 14:45:29 437.305
ITUPSAT 1 08 Dec 14:44:09 14:48:42 44° 100° (E) 14:53:14 437.325
ISS 08 Dec 14:57:49 15:01:04 69° 314° (NW) 15:04:19 145.825
MOZHAYETS 4 08 Dec 14:58:58 15:01:07 13° 94° (E) 15:03:15
BEESAT 3 08 Dec 15:06:52 15:09:39 18° 250° (WSW) 15:12:24 437.485
AUBIESAT-1 08 Dec 15:11:58 15:16:28 77° 107° (ESE) 15:20:40 437.475
O/OREOS (USA 219) 08 Dec 15:16:48 15:21:15 54° 105° (ESE) 15:25:42 437.305
SRMSAT 08 Dec 15:20:38 15:25:47 31° 184° (S) 15:30:55 437.500
M-CUBED/EXP-1 PRIME 08 Dec 15:26:36 15:31:06 55° 290° (WNW) 15:35:21 437.505
JUGNU 08 Dec 15:26:53 15:30:31 17° 197° (SSW) 15:34:09 437.505
BEESAT 2 08 Dec 15:41:57 15:44:38 17° 251° (WSW) 15:47:18 435.950
SWISSCUBE 08 Dec 15:49:01 15:53:01 28° 289° (WNW) 15:57:02 437.505
BRITE-PL 08 Dec 15:51:53 15:52:50 11° 66° (ENE) 15:53:48 437.365/2234.400
BEESAT 08 Dec 15:52:44 15:56:47 29° 289° (WNW) 16:00:49 436.000
RS-15 08 Dec 15:53:15 16:04:47 43° 53° (NE) 16:15:51 29.354- 29.394
ITAMSAT 1 08 Dec 16:09:02 16:12:12 16° 265° (W) 16:15:24 435.822/435.867
ITUPSAT 1 08 Dec 16:23:38 16:26:05 14° 293° (WNW) 16:28:33 437.325
AO-7 08 Dec 16:28:05 16:35:18 33° 260° (W) 16:42:38 29.400- 29.500
MOZHAYETS 4 08 Dec 16:34:06 16:38:22 41° 286° (WNW) 16:42:38
NOAA 15 08 Dec 16:39:25 16:40:29 11° 64° (ENE) 16:41:35 137.62
STARS 08 Dec 16:42:31 16:46:35 36° 99° (E) 16:50:36 437.465
KKS-1 08 Dec 16:43:58 16:48:28 87° 280° (W) 16:52:55 437.445
CUBESAT XI-V 08 Dec 16:44:24 16:48:25 28° 97° (E) 16:52:26 437.345
GOMX 1 08 Dec 16:48:52 16:52:16 21° 69° (ENE) 16:55:51 467.674
HORYU 2 08 Dec 16:50:06 16:54:23 46° 74° (ENE) 16:58:40 437.375
Cubesat XI-IV 08 Dec 16:50:59 16:53:30 13° 66° (ENE) 16:56:01 437.490
AIST 2 08 Dec 16:54:30 16:58:36 47° 61° (ENE) 17:02:39 435.215
O/OREOS (USA 219) 08 Dec 16:59:47 17:00:55 11° 299° (WNW) 17:02:04 437.305
SRMSAT 08 Dec 17:10:05 17:14:27 21° 193° (SSW) 17:18:50 437.500
Cosmos 2491 08 Dec 17:12:21 17:19:11 25° 74° (ENE) 17:25:57 435.465 / 435.565
BRITE-PL 08 Dec 17:26:40 17:30:44 48° 261° (W) 17:35:06 437.365/2234.400
YUBILEINY 08 Dec 17:33:56 17:38:31 16° 81° (E) 17:43:06 435.215
LilacSat-2 08 Dec 17:48:30 17:52:16 54° 76° (ENE) 17:56:01 437.200
HO-68 08 Dec 17:52:28 17:55:21 13° 60° (ENE) 17:58:15 435.675
CUTE-I 08 Dec 18:00:43 18:06:04 74° 74° (ENE) 18:11:26 437.470
RS-15 08 Dec 18:05:46 18:17:18 50° 252° (WSW) 18:28:23 29.354- 29.394
NOAA 15 08 Dec 18:14:23 18:19:35 71° 258° (WSW) 18:24:50 137.62
STARS 08 Dec 18:20:06 18:22:34 15° 291° (WNW) 18:25:01 437.465
DOVE 4 08 Dec 18:21:02 18:25:46 87° 263° (W) 18:30:49 437.250
CUBESAT XI-V 08 Dec 18:22:05 18:25:33 21° 289° (WNW) 18:29:03 437.345
GOMX 1 08 Dec 18:26:16 18:30:07 28° 264° (W) 18:34:13 467.674
Cubesat XI-IV 08 Dec 18:27:41 18:32:59 60° 259° (W) 18:38:18 437.490
HORYU 2 08 Dec 18:29:36 18:31:03 11° 266° (W) 18:32:30 437.375
NOAA 18 08 Dec 18:33:47 18:39:18 85° 257° (WSW) 18:44:53 137.9125
AIST 2 08 Dec 18:35:49 18:36:35 10° 253° (WSW) 18:37:22 435.215
CUTE 1.7 + AOD 2 08 Dec 18:39:04 18:41:37 16° 70° (ENE) 18:44:08 437.475
Cosmos 2504 08 Dec 18:46:38 18:53:04 25° 84° (E) 18:59:45 435.465 / 435.565
CANX-2 08 Dec 18:56:23 19:00:05 31° 74° (ENE) 19:03:47 2200.000
SO-50 08 Dec 18:59:46 19:04:26 53° 114° (ESE) 19:09:02 436.795
Cosmos 2491 08 Dec 19:07:53 19:16:17 55° 269° (W) 19:24:41 435.465 / 435.565
SEEDS 08 Dec 19:15:49 19:19:24 29° 74° (ENE) 19:23:01 437.485
CINEMA 3 08 Dec 19:18:20 19:23:15 88° 258° (WSW) 19:28:17 145.822/145.860
CUBEBUG 2 08 Dec 19:18:24 19:21:54 21° 71° (ENE) 19:25:22 437.445
CUSAT 1 08 Dec 19:18:28 19:19:27 11° 80° (E) 19:20:28 437.405
COMPASS 1 08 Dec 19:21:09 19:24:17 21° 72° (ENE) 19:27:25 437.405
YUBILEINY 08 Dec 19:25:30 19:34:11 79° 276° (W) 19:42:58 435.215
PCSat 08 Dec 19:33:18 19:35:59 14° 53° (NE) 19:38:39 145.827
HO-68 08 Dec 19:34:53 19:42:03 89° 75° (ENE) 19:49:16 435.675
AIST 1 08 Dec 19:41:19 19:45:36 81° 95° (E) 19:49:57
STRAND 1 08 Dec 19:53:02 19:58:09 85° 283° (WNW) 20:03:13 437.568
UWE-3 08 Dec 19:53:58 19:58:06 32° 73° (ENE) 20:02:12 435.000/436.395/437.385
CUTE 1.7 + AOD 2 08 Dec 20:13:26 20:17:08 30° 262° (W) 20:20:51 437.475
AAUSAT CUBESAT 2 08 Dec 20:22:09 20:26:15 79° 259° (W) 20:30:21 437.432
ZACube-1 08 Dec 20:28:06 20:32:29 47° 75° (ENE) 20:36:48 437.345
DANDE 08 Dec 20:32:21 20:33:40 12° 82° (E) 20:35:05 436.750
CANX-2 08 Dec 20:33:31 20:35:56 15° 265° (W) 20:38:22 2200.000
FUNcube-1 08 Dec 20:34:02 20:38:26 51° 76° (ENE) 20:42:46 145.935
Cosmos 2504 08 Dec 20:37:45 20:45:46 54° 280° (W) 20:54:18 435.465 / 435.565
SO-50 08 Dec 20:42:33 20:45:09 14° 308° (NW) 20:47:44 436.795
SEEDS 08 Dec 20:52:35 20:55:04 15° 265° (W) 20:57:34 437.485
CUBEBUG 2 08 Dec 20:54:06 20:58:15 30° 263° (W) 21:02:24 437.445
DELFI C3 08 Dec 20:55:36 20:58:49 25° 73° (ENE) 21:02:03 145.870
COMPASS 1 08 Dec 20:56:33 20:59:41 21° 264° (W) 21:02:48 437.405
CUSAT 1 08 Dec 20:56:46 21:01:03 53° 263° (W) 21:06:40 437.405
Oscar 11 08 Dec 21:00:55 21:05:13 77° 258° (WSW) 21:09:32 145.826/435.025
PCSat 08 Dec 21:14:26 21:19:48 67° 248° (WSW) 21:25:09 145.827
HO-68 08 Dec 21:28:31 21:30:22 11° 268° (W) 21:32:14 435.675
PRISM 08 Dec 21:29:02 21:33:11 67° 101° (ESE) 21:37:19 437.425
HUMSAT D 08 Dec 21:30:03 21:33:54 35° 74° (ENE) 21:37:43 437.325/437.525
YUBILEINY 08 Dec 21:30:30 21:32:14 11° 293° (WNW) 21:33:59 435.215
UWE-3 08 Dec 21:31:21 21:34:31 18° 265° (W) 21:37:40 435.000/436.395/437.385
TIGRISAT 08 Dec 21:50:30 21:53:36 19° 96° (E) 21:56:39 435.000
ANTELSAT 08 Dec 21:52:33 21:55:54 22° 96° (E) 21:59:12 437.575/2403.000
PHONESAT 2.4 08 Dec 22:01:13 22:03:45 39° 146° (SE) 22:06:16 2401.200-2431.200
ZACube-1 08 Dec 22:07:26 22:08:52 11° 266° (W) 22:10:19 437.345
DANDE 08 Dec 22:13:22 22:16:05 22° 263° (W) 22:19:24 436.750
FUNcube-1 08 Dec 22:14:07 22:14:49 10° 267° (W) 22:15:31 145.935
DELFI C3 08 Dec 22:31:11 22:33:34 16° 265° (W) 22:35:57 145.870
JAS-2 08 Dec 22:41:44 22:44:54 16° 96° (E) 22:48:12 435.910
UNISAT 6 08 Dec 22:57:05 23:01:18 52° 285° (WNW) 23:05:26 437.425
QB50P2 08 Dec 23:04:51 23:07:15 15° 95° (E) 23:09:36 145.880/145.840
POLYITAN 1 08 Dec 23:05:29 23:07:40 14° 95° (E) 23:09:49 437.675
ISS 08 Dec 23:06:40 23:09:58 90° 283° (WNW) 23:13:15 145.825
HUMSAT D 08 Dec 23:07:38 23:09:33 13° 266° (W) 23:11:27 437.325/437.525
DUCHIFAT 1 08 Dec 23:16:21 23:18:55 16° 95° (E) 23:21:27 145.980
QB50P1 08 Dec 23:16:42 23:19:46 19° 96° (E) 23:22:48 145.935-145.965
AISAT 08 Dec 23:26:08 23:30:17 42° 74° (ENE) 23:34:28 437.250
TIGRISAT 08 Dec 23:26:40 23:30:12 25° 288° (WNW) 23:33:40 435.000
ANTELSAT 08 Dec 23:29:08 23:32:28 22° 289° (WNW) 23:35:45 437.575/2403.000
Cosmos 2499 08 Dec 23:29:32 23:36:12 26° 84° (E) 23:43:05 435.465 / 435.565
ESTCUBE 1 08 Dec 23:32:36 23:36:59 60° 259° (W) 23:41:25 437.505/2401.250
PHONESAT 2.4 08 Dec 23:36:53 23:39:01 21° 339° (NNW) 23:41:07 2401.200-2431.200
POPSAT HIP 1 08 Dec 23:37:50 23:41:43 35° 99° (E) 23:45:34 437.405
CUBEBUG 1 08 Dec 23:43:39 23:47:59 77° 258° (WSW) 23:52:23 437.445
BUGSAT 1 09 Dec 00:00:15 00:03:10 19° 96° (E) 00:06:03 437.445
VELOX 1 09 Dec 00:02:34 00:06:56 71° 258° (WSW) 00:11:21 145.980
GONETS M04 09 Dec 00:04:14 00:12:14 42° 89° (E) 00:20:12
DX 1 09 Dec 00:05:28 00:09:44 60° 75° (ENE) 00:14:02 434.975-435.025
UKube-1 09 Dec 00:06:35 00:10:39 43° 74° (ENE) 00:14:45 .
SPROUT 09 Dec 00:12:21 00:16:39 86° 258° (WSW) 00:20:59 437.525
50 SAT 09 Dec 00:17:57 00:21:17 43° 260° (W) 00:24:38 437.505
JAS-2 09 Dec 00:25:02 00:30:03 46° 286° (WNW) 00:35:29 435.910
NANOSAT C BR1 09 Dec 00:30:02 00:34:06 48° 285° (WNW) 00:38:07 145.865
Oscar 19 09 Dec 00:35:25 00:36:30 11° 93° (E) 00:37:36 437.125/150
QB50P2 09 Dec 00:39:18 00:43:03 31° 287° (WNW) 00:46:45 145.880/145.840
POLYITAN 1 09 Dec 00:39:42 00:43:29 33° 287° (WNW) 00:47:14 437.675
AO-85 09 Dec 00:42:56 00:47:45 44° 114° (ESE) 00:52:18 145.980
DUCHIFAT 1 09 Dec 00:50:56 00:54:34 29° 287° (WNW) 00:58:09 145.980
QB50P1 09 Dec 00:52:01 00:55:25 24° 288° (WNW) 00:58:47 145.935-145.965
AISAT 09 Dec 01:05:08 01:06:52 12° 266° (W) 01:08:36 437.250
SWISSCUBE 09 Dec 01:13:45 01:16:00 13° 67° (ENE) 01:18:15 437.505
POPSAT HIP 1 09 Dec 01:15:01 01:17:08 14° 291° (WNW) 01:19:13 437.405
BEESAT 09 Dec 01:17:34 01:19:42 13° 67° (ENE) 01:21:51 436.000
Cosmos 2499 09 Dec 01:20:26 01:28:40 54° 280° (W) 01:37:19 435.465 / 435.565
TISAT 1 09 Dec 01:22:54 01:27:08 87° 261° (W) 01:31:24 437.305
O/OREOS (USA 219) 09 Dec 01:32:59 01:37:08 37° 68° (ENE) 01:41:17 437.305
BUGSAT 1 09 Dec 01:35:05 01:38:26 24° 288° (WNW) 01:41:43 437.445
ITUPSAT 1 09 Dec 01:45:21 01:49:19 27° 71° (ENE) 01:53:18 437.325
UKube-1 09 Dec 01:45:36 01:46:49 11° 266° (W) 01:48:01 .
AUBIESAT-1 09 Dec 01:51:39 01:55:21 33° 68° (ENE) 01:59:17 437.475
GONETS M04 09 Dec 02:01:25 02:08:59 33° 283° (WNW) 02:16:36
M-CUBED/EXP-1 PRIME 09 Dec 02:06:19 02:10:19 66° 72° (ENE) 02:14:39 437.505
Oscar 19 09 Dec 02:10:58 02:16:06 64° 285° (WNW) 02:21:14 437.125/150
AO-85 09 Dec 02:25:02 02:28:17 17° 305° (NW) 02:31:25 145.980
Gurwin Techsat 1B 09 Dec 02:32:47 02:38:07 82° 284° (WNW) 02:43:25 435.225
AO-7 09 Dec 02:44:42 02:50:21 20° 96° (E) 02:55:57 29.400- 29.500
ITAMSAT 1 09 Dec 02:47:07 02:51:22 26° 97° (E) 02:55:36 435.822/435.867
SWISSCUBE 09 Dec 02:48:43 02:53:20 48° 260° (W) 02:57:55 437.505
PHONESAT 2.4 09 Dec 02:49:50 02:50:51 12° 12° (NNE) 02:51:51 2401.200-2431.200
BEESAT 09 Dec 02:52:23 02:57:00 49° 260° (W) 03:01:37 436.000
O/OREOS (USA 219) 09 Dec 03:13:59 03:16:07 13° 261° (W) 03:18:16 437.305
BEESAT 3 09 Dec 03:14:05 03:16:39 17° 109° (ESE) 03:19:15 437.485
ITUPSAT 1 09 Dec 03:23:15 03:27:02 23° 263° (W) 03:30:48 437.325
AUBIESAT-1 09 Dec 03:27:26 03:29:49 15° 262° (W) 03:32:18 437.475
MOZHAYETS 4 09 Dec 03:29:17 03:33:53 89° 68° (ENE) 03:38:29
STARS 09 Dec 03:34:22 03:37:03 16° 69° (ENE) 03:39:43 437.465
KKS-1 09 Dec 03:35:57 03:40:06 39° 73° (ENE) 03:44:17 437.445
CUBESAT XI-V 09 Dec 03:43:18 03:45:41 14° 68° (ENE) 03:48:04 437.345
BEESAT 2 09 Dec 03:50:02 03:52:52 20° 110° (ESE) 03:55:45 435.950
PHONESAT 2.4 09 Dec 04:23:53 04:26:27 47° 27° (NNE) 04:28:59 2401.200-2431.200
ITAMSAT 1 09 Dec 04:26:21 04:30:42 28° 290° (WNW) 04:35:02 435.822/435.867
AO-7 09 Dec 04:35:12 04:43:31 70° 289° (WNW) 04:51:48 29.400- 29.500
HORYU 2 09 Dec 04:48:31 04:50:50 14° 95° (E) 04:53:09 437.375
BEESAT 3 09 Dec 04:50:47 04:54:02 25° 303° (WNW) 04:57:19 437.485
GOMX 1 09 Dec 04:57:39 04:59:54 13° 92° (E) 05:02:08 467.674
STARS 09 Dec 05:09:02 05:13:03 34° 261° (W) 05:17:05 437.465
KKS-1 09 Dec 05:14:34 05:16:45 13° 265° (W) 05:18:55 437.445
SO-50 09 Dec 05:17:08 05:21:36 71° 245° (WSW) 05:26:00 436.795
CUBESAT XI-V 09 Dec 05:18:20 05:22:39 41° 261° (W) 05:26:59 437.345
BEESAT 2 09 Dec 05:27:19 05:30:29 23° 303° (WNW) 05:33:40 435.950
BRITE-PL 09 Dec 05:35:59 05:41:37 85° 103° (ESE) 05:47:19 437.365/2234.400
YUBILEINY 09 Dec 05:43:34 05:51:42 40° 78° (ENE) 05:59:48 435.215
AIST 1 09 Dec 05:57:00 05:58:24 11° 75° (ENE) 05:59:47
PHONESAT 2.4 09 Dec 06:00:10 06:01:24 12° 219° (SW) 06:02:37 2401.200-2431.200
